EW5390 Weather Reports


Display with metric or nautical units.
time (UTC)temp
F
wind
direction
speed
MPH
gust
MPH
rain 1hr
in
rain 24hr
in
rain mn
in
humidity
%
barometer
mb
20260831012553 77 0 0.0 0.0 0.00 0.00 0.00 87 1019.4
20260831012054 77 0 0.0 0.0 0.00 0.00 0.00 88 1019.4
20260831011616 77 0 0.0 0.0 0.00 0.00 0.00 88 1019.3
20260831011052 77 0 0.0 0.0 0.00 0.00 0.00 88 1019.3
20260831010552 77 0 0.0 0.0 0.00 0.00 0.00 88 1019.3
20260831010113 77 0 0.0 0.0 0.00 0.00 0.00 88 1019.4
20260831005554 77 0 0.0 0.0 0.00 0.00 0.00 88 1019.4
20260831005052 77 0 0.0 0.0 0.00 0.00 0.00 88 1019.3
20260831004615 77 0 0.0 0.0 0.00 0.00 0.00 88 1019.3
20260831004056 77 0 0.0 0.0 0.00 0.00 0.00 88 1019.2
20260831003555 77 0 0.0 0.0 0.00 0.00 0.00 88 1019.2
20260831003111 77 0 0.0 0.0 0.00 0.00 0.00 88 1019.1
20260831002553 77 0 0.0 0.0 0.00 0.00 0.00 88 1019.1
20260831002054 77 0 0.0 0.0 0.00 0.00 0.00 88 1019.0
20260831001618 77 0 0.0 0.0 0.00 0.00 0.00 88 1018.9
20260831001054 77 0 0.0 0.0 0.00 0.00 0.00 87 1018.9
20260831000555 78 0 0.0 0.0 0.00 0.00 0.00 87 1018.9
20260831000106 78 0 0.0 0.0 0.00 0.00 0.00 87 1019.0
20260830235553 78 0 0.0 0.0 0.00 0.00 0.00 86 1018.9
20260830235053 78 0 0.0 0.0 0.00 0.00 0.00 86 1018.9
20260830234607 78 0 0.0 0.0 0.00 0.00 0.00 86 1018.8
20260830234053 78 0 0.0 0.0 0.00 0.00 0.00 85 1018.8
20260830233554 79 0 0.0 0.0 0.00 0.00 0.00 85 1018.8
20260830233057 79 0 0.0 0.0 0.00 0.00 0.00 85 1018.8
20260830232552 79 0 0.0 0.0 0.00 0.00 0.00 84 1018.9
20260830232051 79 0 0.0 0.0 0.00 0.00 0.00 84 1018.9
20260830231611 79 152 0.0 0.0 0.00 0.00 0.00 84 1018.9
20260830231054 79 0 0.0 0.0 0.00 0.00 0.00 84 1018.9
20260830230553 79 0 0.0 0.0 0.00 0.00 0.00 83 1019.1
20260830230108 80 0 0.0 0.0 0.00 0.00 0.00 83 1019.0
20260830225555 80 0 0.0 0.0 0.00 0.00 0.00 83 1019.1
20260830225052 80 0 0.0 0.0 0.00 0.00 0.00 82 1019.1
20260830224608 80 0 0.0 0.0 0.00 0.00 0.00 81 1019.0
20260830224052 80 0 0.0 0.0 0.00 0.00 0.00 81 1018.9
20260830223552 80 152 0.0 0.0 0.00 0.00 0.00 81 1018.9
20260830223056 81 0 0.0 0.0 0.00 0.00 0.00 80 1019.1
20260830222555 81 0 0.0 0.0 0.00 0.00 0.00 79 1019.1
20260830222052 81 0 0.0 0.0 0.00 0.00 0.00 79 1019.0
20260830221606 81 0 0.0 0.0 0.00 0.00 0.00 79 1018.9
20260830221055 81 0 0.0 0.0 0.00 0.00 0.00 78 1018.9
20260830220555 82 0 0.0 1.0 0.00 0.00 0.00 78 1018.8
20260830220104 82 0 0.0 1.0 0.00 0.00 0.00 78 1018.7
20260830215552 82 0 0.0 1.0 0.00 0.00 0.00 78 1018.7
20260830215055 82 149 0.0 1.0 0.00 0.00 0.00 78 1018.6
20260830214601 82 0 0.0 1.0 0.00 0.00 0.00 77 1018.6
20260830214056 82 129 0.0 1.0 0.00 0.00 0.00 78 1018.6
20260830213552 82 0 0.0 1.0 0.00 0.00 0.00 78 1018.6
20260830213102 82 0 0.0 1.0 0.00 0.00 0.00 77 1018.6
20260830212552 82 0 0.0 1.0 0.00 0.00 0.00 78 1018.5
20260830212053 82 0 0.0 1.0 0.00 0.00 0.00 77 1018.5
20260830211601 83 60 0.0 1.0 0.00 0.00 0.00 77 1018.6
20260830211052 83 0 0.0 1.0 0.00 0.00 0.00 76 1018.5
20260830210554 83 0 0.0 1.0 0.00 0.00 0.00 76 1018.6
20260830210139 83 0 0.0 1.0 0.00 0.00 0.00 76 1018.6
20260830205551 83 0 0.0 1.0 0.00 0.00 0.00 75 1018.6
20260830205051 84 0 0.0 1.0 0.00 0.00 0.00 74 1018.7
20260830204611 84 0 0.0 1.0 0.00 0.00 0.00 73 1018.7
20260830204054 84 0 0.0 2.0 0.00 0.00 0.00 70 1018.6
20260830203552 84 11 0.0 3.0 0.00 0.00 0.00 71 1018.5
20260830203104 84 11 0.0 3.0 0.00 0.00 0.00 69 1018.6
20260830202553 84 322 1.0 3.0 0.00 0.00 0.00 69 1018.7
20260830202054 84 318 0.0 3.0 0.00 0.00 0.00 69 1018.8
20260830201603 84 318 2.0 3.0 0.00 0.00 0.00 67 1018.8
20260830201053 84 42 0.0 2.0 0.00 0.00 0.00 69 1019.0
20260830200553 84 332 0.0 3.0 0.00 0.00 0.00 70 1019.1
20260830200114 84 316 1.0 4.0 0.00 0.00 0.00 70 1019.1
20260830195554 84 302 1.0 4.0 0.00 0.00 0.00 69 1019.1
20260830195053 84 305 1.0 4.0 0.00 0.00 0.00 68 1019.2
20260830194648 84 317 0.0 5.0 0.00 0.00 0.00 68 1019.2
20260830194055 84 330 1.0 5.0 0.00 0.00 0.00 67 1019.4
20260830193557 84 322 2.0 5.0 0.00 0.00 0.00 69 1019.4
20260830193105 84 315 1.0 4.0 0.00 0.00 0.00 69 1019.3
20260830192554 84 301 0.0 3.0 0.00 0.00 0.00 70 1019.4
20260830192053 84 12 0.0 4.0 0.00 0.00 0.00 71 1019.5
20260830191608 84 317 1.0 5.0 0.00 0.00 0.00 70 1019.5
20260830191053 84 321 2.0 5.0 0.00 0.00 0.00 71 1019.5
20260830190553 84 292 1.0 3.0 0.00 0.00 0.00 74 1019.7
20260830190110 84 312 1.0 4.0 0.00 0.00 0.00 73 1019.7
20260830185554 84 319 2.0 4.0 0.00 0.00 0.00 72 1019.5
20260830185053 84 356 0.0 4.0 0.00 0.00 0.00 73 1019.6
20260830184614 84 307 0.0 3.0 0.00 0.00 0.00 74 1019.7
20260830184052 84 323 1.0 3.0 0.00 0.00 0.00 73 1019.8
20260830183556 84 330 0.0 3.0 0.00 0.00 0.00 74 1019.9
20260830183117 83 330 0.0 2.0 0.00 0.00 0.00 74 1019.9
20260830182556 83 0 0.0 2.0 0.00 0.00 0.00 75 1020.1
20260830182054 83 0 1.0 3.0 0.00 0.00 0.00 74 1020.2
20260830181559 83 0 0.0 3.0 0.00 0.00 0.00 77 1020.2
20260830181057 83 319 1.0 3.0 0.00 0.00 0.00 76 1020.3
20260830180553 83 276 0.0 3.0 0.00 0.00 0.00 76 1020.3
20260830180106 83 0 1.0 3.0 0.00 0.00 0.00 76 1020.5
20260830175554 83 322 0.0 3.0 0.00 0.00 0.00 76 1020.5
20260830175054 83 315 1.0 3.0 0.00 0.00 0.00 77 1020.7
20260830174605 83 319 1.0 3.0 0.00 0.00 0.00 78 1020.6
20260830174055 83 1 0.0 3.0 0.00 0.00 0.00 79 1020.7
20260830173553 82 354 1.0 2.0 0.00 0.00 0.00 78 1020.7
20260830173115 82 318 0.0 3.0 0.00 0.00 0.00 78 1020.8
20260830172554 82 0 2.0 3.0 0.00 0.00 0.00 78 1020.9
20260830172055 82 322 1.0 3.0 0.00 0.00 0.00 78 1021.0
20260830171602 82 322 0.0 2.0 0.00 0.00 0.00 79 1021.1
20260830171053 82 22 1.0 2.0 0.00 0.00 0.00 77 1021.2
20260830170554 82 212 0.0 4.0 0.00 0.00 0.00 78 1021.3
20260830170106 82 0 1.0 4.0 0.00 0.00 0.00 77 1021.5
20260830165554 81 319 1.0 3.0 0.00 0.00 0.00 78 1021.4
20260830165054 81 0 1.0 2.0 0.00 0.00 0.00 77 1021.4
20260830164600 81 138 0.0 3.0 0.00 0.00 0.00 78 1021.5
20260830164054 81 0 0.0 3.0 0.00 0.00 0.00 78 1021.5
20260830163554 81 315 1.0 3.0 0.00 0.00 0.00 78 1021.6
20260830163104 81 0 0.0 3.0 0.00 0.00 0.00 79 1021.7
20260830162554 81 0 0.0 3.0 0.00 0.00 0.00 79 1021.7
20260830162054 81 186 1.0 3.0 0.00 0.00 0.00 79 1021.8
20260830161627 81 326 1.0 3.0 0.00 0.00 0.00 77 1021.9
20260830161054 82 334 1.0 3.0 0.00 0.00 0.00 77 1022.0
20260830160554 81 358 0.0 3.0 0.00 0.00 0.00 77 1021.9
20260830160104 81 314 0.0 3.0 0.00 0.00 0.00 77 1021.9
20260830155555 81 240 0.0 2.0 0.00 0.00 0.00 78 1021.9
20260830155051 81 204 1.0 4.0 0.00 0.00 0.00 76 1021.8
20260830154603 81 321 1.0 4.0 0.00 0.00 0.00 75 1021.8
20260830154055 82 349 0.0 2.0 0.00 0.00 0.00 75 1021.8
20260830153552 82 0 1.0 2.0 0.00 0.00 0.00 77 1021.9
20260830153106 82 149 0.0 2.0 0.00 0.00 0.00 76 1021.9
20260830152555 81 198 0.0 2.0 0.00 0.00 0.00 77 1022.0
20260830152055 81 236 0.0 4.0 0.00 0.00 0.00 77 1022.0
20260830151601 81 282 0.0 4.0 0.00 0.00 0.00 79 1021.9
20260830151056 81 160 0.0 2.0 0.00 0.00 0.00 79 1022.0
20260830150555 81 153 0.0 2.0 0.00 0.00 0.00 78 1022.0
20260830150116 81 331 0.0 2.0 0.00 0.00 0.00 79 1022.1
20260830145552 81 172 0.0 2.0 0.00 0.00 0.00 79 1022.1
20260830145054 81 32 0.0 2.0 0.00 0.00 0.00 80 1022.1
20260830144602 80 5 0.0 2.0 0.00 0.00 0.00 81 1022.2
20260830144054 79 354 0.0 3.0 0.00 0.00 0.00 81 1022.2
20260830143555 79 0 1.0 3.0 0.00 0.00 0.00 82 1022.3
20260830143105 79 146 1.0 2.0 0.00 0.00 0.00 81 1022.3
20260830142558 79 0 0.0 2.0 0.00 0.00 0.00 83 1022.4
20260830142054 78 161 0.0 2.0 0.00 0.00 0.00 83 1022.4
20260830141601 78 81 0.0 2.0 0.00 0.00 0.00 83 1022.5
20260830141054 78 13 0.0 1.0 0.00 0.00 0.00 84 1022.4
20260830140551 77 0 0.0 2.0 0.00 0.00 0.00 85 1022.5
20260830135554 76 80 0.0 2.0 0.00 0.00 0.00 84 1022.6
20260830135055 76 102 0.0 1.0 0.00 0.00 0.00 88 1022.7
20260830134558 75 0 0.0 1.0 0.00 0.00 0.00 87 1022.8
20260830134055 75 112 0.0 1.0 0.00 0.00 0.00 88 1022.8
20260830133556 74 157 0.0 1.0 0.00 0.00 0.00 89 1022.9
20260830133103 74 0 0.0 1.0 0.00 0.00 0.00 89 1023.0
20260830132551 73 352 0.0 2.0 0.00 0.00 0.00 92 1022.9
20260830132054 73 354 0.0 2.0 0.00 0.00 0.00 93 1022.9
20260830131621 72 157 0.0 2.0 0.00 0.00 0.00 94 1022.9
20260830131055 71 0 0.0 2.0 0.00 0.00 0.00 95 1022.9
20260830130556 71 0 0.0 1.0 0.00 0.00 0.00 95 1023.1
20260830130101 70 0 0.0 1.0 0.00 0.00 0.00 96 1023.2
20260830125551 70 0 0.0 0.0 0.00 0.00 0.00 96 1023.2
20260830125054 69 0 0.0 1.0 0.00 0.00 0.00 96 1023.3
20260830124603 69 141 0.0 1.0 0.00 0.00 0.00 96 1023.2
20260830124054 69 141 0.0 1.0 0.00 0.00 0.00 96 1023.3
20260830123554 69 0 0.0 0.0 0.00 0.00 0.00 96 1023.4
20260830123121 68 0 0.0 0.0 0.00 0.00 0.00 96 1023.4
20260830122555 68 0 0.0 0.0 0.00 0.00 0.00 96 1023.4
20260830122055 68 0 0.0 0.0 0.00 0.00 0.00 96 1023.3
20260830121559 67 0 0.0 0.0 0.00 0.00 0.00 96 1023.3
20260830121054 67 0 0.0 0.0 0.00 0.00 0.00 96 1023.3
20260830120554 67 0 0.0 0.0 0.00 0.00 0.00 96 1023.4
20260830115554 67 0 0.0 0.0 0.00 0.00 0.00 96 1023.3
20260830115057 66 0 0.0 0.0 0.00 0.00 0.00 96 1023.4
20260830114611 66 0 0.0 0.0 0.00 0.00 0.00 96 1023.3
20260830114055 66 0 0.0 0.0 0.00 0.00 0.00 96 1023.3
20260830113554 66 0 0.0 0.0 0.00 0.00 0.00 96 1023.3
20260830113106 66 0 0.0 0.0 0.00 0.00 0.00 96 1023.4
20260830112553 65 0 0.0 0.0 0.00 0.00 0.00 96 1023.3
20260830112051 65 0 0.0 0.0 0.00 0.00 0.00 96 1023.3
20260830111601 65 0 0.0 0.0 0.00 0.00 0.00 96 1023.3
20260830111054 65 0 0.0 0.0 0.00 0.00 0.00 96 1023.2
20260830110555 65 0 0.0 0.0 0.00 0.00 0.00 96 1023.2
20260830110100 65 0 0.0 0.0 0.00 0.00 0.00 96 1023.1
20260830105556 65 0 0.0 0.0 0.00 0.00 0.00 96 1023.1
20260830105054 65 0 0.0 0.0 0.00 0.00 0.00 96 1023.1
20260830104618 65 0 0.0 0.0 0.00 0.00 0.00 96 1023.1
20260830104055 65 0 0.0 0.0 0.00 0.00 0.00 96 1023.1
20260830103555 65 0 0.0 0.0 0.00 0.00 0.00 96 1023.1
20260830103102 65 0 0.0 0.0 0.00 0.00 0.00 96 1023.1
20260830102559 64 0 0.0 0.0 0.00 0.00 0.00 96 1023.1
20260830102053 64 0 0.0 0.0 0.00 0.00 0.00 96 1023.2
20260830101556 64 0 0.0 0.0 0.00 0.00 0.00 96 1023.2
20260830101054 64 0 0.0 0.0 0.00 0.00 0.00 96 1023.2
20260830100554 64 0 0.0 0.0 0.00 0.00 0.00 96 1023.1
20260830100105 64 0 0.0 0.0 0.00 0.00 0.00 96 1023.1
20260830095558 64 0 0.0 0.0 0.00 0.00 0.00 96 1023.1
20260830095055 64 0 0.0 0.0 0.00 0.00 0.00 96 1023.0
20260830094605 64 0 0.0 0.0 0.00 0.00 0.00 96 1022.9
20260830094055 64 0 0.0 0.0 0.00 0.00 0.00 96 1023.0
20260830093554 64 0 0.0 0.0 0.00 0.00 0.00 96 1023.1
20260830093058 64 0 0.0 0.0 0.00 0.00 0.00 96 1023.1
20260830092554 64 0 0.0 0.0 0.00 0.00 0.00 96 1023.1
20260830092053 64 0 0.0 0.0 0.00 0.00 0.00 95 1023.1
20260830091611 64 0 0.0 0.0 0.00 0.00 0.00 95 1023.1
20260830091051 64 0 0.0 0.0 0.00 0.00 0.00 95 1023.1
20260830090551 64 0 0.0 0.0 0.00 0.00 0.00 95 1023.1
20260830090106 64 0 0.0 0.0 0.00 0.00 0.00 95 1023.1
20260830085558 64 0 0.0 0.0 0.00 0.00 0.00 95 1023.1
20260830085054 65 0 0.0 0.0 0.00 0.00 0.00 95 1023.2
20260830084610 65 0 0.0 0.0 0.00 0.00 0.00 95 1023.2
20260830084054 65 0 0.0 0.0 0.00 0.00 0.00 95 1023.2
20260830083554 65 0 0.0 0.0 0.00 0.00 0.00 95 1023.1
20260830083107 65 0 0.0 0.0 0.00 0.00 0.00 95 1023.1
20260830082555 65 0 0.0 0.0 0.00 0.00 0.00 95 1023.2
20260830082056 65 0 0.0 0.0 0.00 0.00 0.00 95 1023.2
20260830081618 65 0 0.0 0.0 0.00 0.00 0.00 95 1023.1
20260830081055 65 0 0.0 0.0 0.00 0.00 0.00 95 1023.2
20260830080558 65 0 0.0 0.0 0.00 0.00 0.00 95 1023.3
20260830080108 65 0 0.0 0.0 0.00 0.00 0.00 95 1023.3
20260830075553 65 0 0.0 0.0 0.00 0.00 0.00 95 1023.2
20260830075056 65 0 0.0 0.0 0.00 0.00 0.00 95 1023.2
20260830074610 65 0 0.0 0.0 0.00 0.00 0.00 95 1023.2
20260830074054 65 0 0.0 0.0 0.00 0.00 0.00 95 1023.2
20260830073551 65 0 0.0 0.0 0.00 0.00 0.00 95 1023.2
20260830073117 64 0 0.0 0.0 0.00 0.00 0.00 95 1023.3
20260830072555 64 0 0.0 0.0 0.00 0.00 0.00 95 1023.2
20260830072052 65 0 0.0 0.0 0.00 0.00 0.00 95 1023.3
20260830071604 65 0 0.0 0.0 0.00 0.00 0.00 95 1023.4
20260830071054 65 0 0.0 0.0 0.00 0.00 0.00 95 1023.3
20260830070554 65 0 0.0 0.0 0.00 0.00 0.00 95 1023.3
20260830065552 65 0 0.0 0.0 0.00 0.00 0.00 95 1023.4
20260830065058 65 0 0.0 0.0 0.00 0.00 0.00 95 1023.4
20260830064638 65 0 0.0 0.0 0.00 0.00 0.00 95 1023.4
20260830064055 65 0 0.0 0.0 0.00 0.00 0.00 95 1023.5
20260830063558 65 0 0.0 0.0 0.00 0.00 0.00 95 1023.6
20260830063105 65 0 0.0 0.0 0.00 0.00 0.00 95 1023.7
20260830062553 65 0 0.0 0.0 0.00 0.00 0.00 95 1023.8
20260830062054 65 0 0.0 0.0 0.00 0.00 0.00 95 1023.8
20260830061631 65 0 0.0 0.0 0.00 0.00 0.00 94 1023.9
20260830061051 65 0 0.0 0.0 0.00 0.00 0.00 94 1023.9
20260830060557 64 0 0.0 0.0 0.00 0.00 0.00 94 1023.9
20260830060108 64 0 0.0 0.0 0.00 0.00 0.00 94 1023.9
20260830055553 64 0 0.0 0.0 0.00 0.00 0.00 94 1023.9
20260830055054 64 0 0.0 0.0 0.00 0.00 0.00 94 1024.0
20260830054604 64 0 0.0 0.0 0.00 0.00 0.00 94 1024.0
20260830054052 64 0 0.0 0.0 0.00 0.00 0.00 94 1024.0
20260830053558 64 0 0.0 0.0 0.00 0.00 0.00 94 1023.9
20260830053100 64 0 0.0 0.0 0.00 0.00 0.00 94 1024.0
20260830052555 64 0 0.0 0.0 0.00 0.00 0.00 94 1023.8
20260830052055 65 0 0.0 0.0 0.00 0.00 0.00 94 1023.8
20260830051608 65 0 0.0 0.0 0.00 0.00 0.00 94 1023.7
20260830051055 65 0 0.0 0.0 0.00 0.00 0.00 94 1023.7
20260830050554 65 0 0.0 0.0 0.00 0.00 0.00 93 1023.7
20260830050106 65 0 0.0 0.0 0.00 0.00 0.00 93 1023.7
20260830045554 65 0 0.0 0.0 0.00 0.00 0.00 93 1023.8
20260830045054 65 0 0.0 0.0 0.00 0.00 0.00 93 1023.8
20260830044613 65 0 0.0 0.0 0.00 0.00 0.00 93 1023.7
20260830044054 65 0 0.0 0.0 0.00 0.00 0.00 93 1023.7
20260830043554 65 0 0.0 0.0 0.00 0.00 0.00 93 1023.7
20260830043059 65 0 0.0 0.0 0.00 0.00 0.00 93 1023.6
20260830042554 65 0 0.0 0.0 0.00 0.00 0.00 93 1023.6
20260830042054 65 0 0.0 0.0 0.00 0.00 0.00 92 1023.5
20260830041627 65 0 0.0 0.0 0.00 0.00 0.00 92 1023.6
20260830041054 65 0 0.0 0.0 0.00 0.00 0.00 92 1023.6
20260830040553 65 0 0.0 0.0 0.00 0.00 0.00 92 1023.5
20260830040110 65 0 0.0 0.0 0.00 0.00 0.00 92 1023.5
20260830035555 65 0 0.0 0.0 0.00 0.00 0.00 92 1023.5
20260830035140 65 0 0.0 0.0 0.00 0.00 0.00 92 1023.4
20260830034559 66 0 0.0 0.0 0.00 0.00 0.00 91 1023.3
20260830034055 66 0 0.0 0.0 0.00 0.00 0.00 91 1023.3
20260830033558 66 0 0.0 0.0 0.00 0.00 0.00 91 1023.3
20260830033112 66 0 0.0 0.0 0.00 0.00 0.00 91 1023.2
20260830032554 66 0 0.0 0.0 0.00 0.00 0.00 91 1023.2
20260830032054 66 0 0.0 0.0 0.00 0.00 0.00 91 1023.3
20260830031613 66 0 0.0 0.0 0.00 0.00 0.00 91 1023.2
20260830031054 66 0 0.0 0.0 0.00 0.00 0.00 90 1023.3
20260830030555 66 0 0.0 0.0 0.00 0.00 0.00 90 1023.2
20260830030103 66 0 0.0 0.0 0.00 0.00 0.00 90 1023.2
20260830025554 66 0 0.0 0.0 0.00 0.00 0.00 90 1023.2
20260830025054 66 0 0.0 0.0 0.00 0.00 0.00 89 1023.3
20260830024640 66 0 0.0 0.0 0.00 0.00 0.00 89 1023.4
20260830024058 67 0 0.0 0.0 0.00 0.00 0.00 89 1023.4
20260830023554 67 0 0.0 0.0 0.00 0.00 0.00 89 1023.4
20260830023105 67 0 0.0 0.0 0.00 0.00 0.00 88 1023.4
20260830022554 67 0 0.0 0.0 0.00 0.00 0.00 88 1023.3
20260830022054 67 0 0.0 0.0 0.00 0.00 0.00 88 1023.2
20260830021605 67 0 0.0 0.0 0.00 0.00 0.00 88 1023.2
20260830021051 67 0 0.0 0.0 0.00 0.00 0.00 88 1023.2
20260830020555 67 0 0.0 0.0 0.00 0.00 0.00 88 1023.2
20260830020120 68 0 0.0 0.0 0.00 0.00 0.00 88 1023.2
20260830015555 68 0 0.0 0.0 0.00 0.00 0.00 88 1023.2
20260830015054 68 0 0.0 0.0 0.00 0.00 0.00 87 1023.2
20260830014606 68 0 0.0 0.0 0.00 0.00 0.00 86 1023.1
20260830014055 68 0 0.0 0.0 0.00 0.00 0.00 85 1023.1
20260830013554 69 0 0.0 0.0 0.00 0.00 0.00 85 1023.0
20260830013126 69 0 0.0 0.0 0.00 0.00 0.00 85 1022.8